Аэропорт
Мары (UTAM)

 UTAM / MYP
ЗЦ Центральная Азия
Ашхабад (UTAA)
Ашхабад (UTAA)
 37.61940, 61.89670  / 728 ft

 UTAM 220600Z 07006KT CAVOK 14/02 Q1028 R88/CLRD70 NOSIG
 TAF UTAM 212230Z 2200/2224 01016KT 6000 SCT050 SCT100 TEMPO 2200/2206 32014G24KT 3000 DRDU SCT050CB TEMPO 2206/2215 35016G26KT 3000 DRDU BECMG 2215/2216 02012KT 5000 BKN050
показать схемы
Название сценария Тип сценария Flight Simulator 9 Flight Simulator X Prepar3D v2 Prepar3D v3 Prepar3D v4 Prepar3D v5 xPlane
UTAM for FS9 (Afcad) бесплатный
UTAM for FSX/P3D (Afcad) бесплатный

Аэропорт Мары — международный аэропорт города Мары, Туркменистан. Для обслуживания авиапассажиров в аэропорту построен новый терминал пропускной способностью 300 человек в час, соответствующий международным стандартам. Расположен 6 км северо-востоку от центра Мары. Новое здание аэровокзала площадью более 3 000 квадратных метров было сдано в эксплуатацию в 2009 году. Тогда и приобрел аэропорт статус «Международного». Две взлетно-посадочных полосы обслуживают междугородние и внутренние рейсы. Длина одной 3800 метров, второй – 2800. Аэропорт принимает самолеты АН 12, АН 26, АН 30, ТУ 134, ИЛ 76, ЯК 40, Boeing 737, Boeing757, Boeing 777 и другие, более легкие, а также вертолеты всех типов. Тип аэропорта: совместного базирования.



2020 © VATRUS division (Privacy Policy)